THOR ABLESTAR DEB, 254

Orbit data source: Space-Track

THOR ABLESTAR DEB, 254 is space debris in LEO originally from a launch on Thu, 29 Jun 1961 UTC launched from the Air Force Eastern Test Range (AFETR). Debris objects in space refer to the collection of defunct objects orbiting the Earth. Examples of debris include non-operational satellites, rocket bodies, and fragments generated from explosions, collisions, or faulty payload assembly.

Loading next visibility...
Identifier
254, 1961-015CF
Orbit
LEO
Country
Flag of USUS
Related business
Manufacturer
Unknown
Mission
Spacecraft
Bus & Motor
Unknown
Mass
Unknown
Launch date (UTC)
1961-06-29 (65 years ago)
Launch vehicle
Unknown
Launch site
Air Force Eastern Test Range (AFETR)
Object type
Payload
Rocket body
Debris
Shape & HBR
Unknown shape, 0.1 m
Radar Cross Section
Small (<0.1 m²)

Expand to show TLE details & history
Last TLE update: 13 hours ago

TLE from 13 hours ago
0 THOR ABLESTAR DEB
1 00254U 61015CF  26038.07988907  .00002673  00000-0  66447-3 0  9999
2 00254  66.7718 270.8636 0060498 183.3957 176.6751 14.52254694354785
Epoch: 2026-02-07T01:55Z
TLE epoch observation values (Epoch: 2026-02-07T01:55:02.415Z)
Latitude
-0.00009°
Longitude
104.89495°
Altitude
763.294 km
Speed
7.451 km/s
True Right ascension
18h 03m 27s
True Declination
0° 00' 00"
Sunlit
Object was in daylight at epoch
Visualization orbit readout
Latitude
Unknown
Longitude
Unknown
Altitude
Unknown
Speed
Unknown
Apparent Right ascension
Unknown
Apparent Declination
Unknown
Sunlit
N/A
Visualization observer readout
Local Sidereal Time
17:34:37
Azimuth
Unknown
Elevation
Unknown
Doppler factor
Unknown
Orbital elements
Apogee altitude
759.565 km
Perigee altitude
673.721 km
Semi-major axis
7,094.78 km
Eccentricity
0.00605
Inclination
66.7718°
RAAN
270.8636°
Arg. of periapsis
183.3957°
True anomaly
176.71501°
Mean anomaly
176.6751°
Eccentric anomaly
176.69508°
Mean motion
3.63191 °/min
Orbital period
99.12 mins
BSTAR
0.00066447
Loading maneuver chart data...
Computing Atmospheric mass density...

Documentation

Showing up to 5 results
|